Volver al catálogo

STARLINK-33889

ActivoComunicacionesVLEO
NORAD 63829·PAYLOAD·🇺🇸 United States

Lanzado May 4, 2025 desde Cape Canaveral Space Force Station

Loading…

Próximos Pases (próximas 24 horas)

TLE

ActualizadoSource: CelesTrak SupGP

Época: Sep 15, 2026, 02:38 UTC

1 63829C 25092AB  26258.11020833 -.00034430  00000+0 -12472-2 0  2588
2 63829  43.0003 182.6114 0001059 275.0413 177.8468 15.27591671    16

Sigue STARLINK-33889 en tiempo real con AllMySat

Download on the App Store